Regional Weather Roundup
Issued by NWS

Home | Current Version | Previous Version | Text Only | Print | Product List | Glossary Off
Versions: 1 2 3 4 5 6 7 8 9 10 11 12 13 14 15 16 17 18 19 20 21 22 23 24 25 26 27 28 29 30 31 32 33 34 35 36 37 38 39 40 41 42 43 44 45 46 47 48 49 50

000
ASUS45 KCYS 052010
RWRWY

WYOMING REGIONAL WEATHER ROUNDUP
NATIONAL WEATHER SERVICE CHEYENNE WY
200 PM MDT SUN JUL 05 2015

NOTE:  "FAIR" INDICATES FEW OR NO CLOUDS BELOW 12,000 FEET
WITH NO SIGNIFICANT WEATHER AND/OR OBSTRUCTIONS TO VISIBILITY.

WYZ001-052100-
YELLOWSTONE NATIONAL PARK

CITY           SKY/WX    TMP DP  RH WIND       PRES   REMARKS
LK YELLOWSTONE   N/A     60  48  64 W5        30.25S
W YELLOWSTONE  NOT AVBL

$$
WYZ002>013-054>058-071-098>099-052100-
NORTHERN WYOMING

CITY           SKY/WX    TMP DP  RH WIND       PRES   REMARKS
JACKSON        CLOUDY    66  54  63 S8        30.17S
CODY           CLOUDY    57  54  88 N9        30.13S
GREYBULL       CLOUDY    65  53  65 NW20      30.04R
WORLAND        CLOUDY    68  54  60 NE7       30.07R HAZE
SHERIDAN       CLOUDY    62  55  77 N14       30.10R HAZE
BUFFALO        LGT RAIN  61  55  81 NW8       30.12S
GILLETTE       CLOUDY    65  58  78 N14       30.05R
HULETT         LGT RAIN  68  61  77 N8        30.03R
NEWCASTLE      FAIR      79  59  50 N16G28    29.91R

$$
WYZ014>020-022>026-101>103-052100-
CENTRAL WYOMING

CITY           SKY/WX    TMP DP  RH WIND       PRES   REMARKS
BIG PINEY      CLOUDY    61  55  81 N7        30.23S
PINEDALE       LGT RAIN  59  55  88 MISG      30.24S
DUBOIS         LGT RAIN  55  50  82 W8        30.22R
LANDER         LGT RAIN  67  56  67 N9        30.10R
RIVERTON       CLOUDY    70  55  59 NE12      30.09R
CASPER         FAIR      70  55  59 N13       30.08R
DOUGLAS        FAIR      73  58  59 N21G28    30.03R

$$
WYZ021-027>030-104>119-052100-
SOUTHERN WYOMING

CITY           SKY/WX    TMP DP  RH WIND       PRES   REMARKS
EVANSTON       FAIR      64  57  78 SW10      30.22F
KEMMERER       LGT RAIN  59  54  82 CALM      30.24F
FORT BRIDGER   CLOUDY    61  61 100 NW8       30.25F
ROCK SPRINGS   LGT RAIN  63  57  81 NW12      30.20S
DIXON          LGT RAIN  64  58  81 W6        30.21S
RAWLINS        CLOUDY    67  55  65 W15G28    30.17R
SARATOGA       MOCLDY    72  52  49 W15       30.18F
LARAMIE        CLOUDY    71  51  49 NW17G26   30.12R
CHEYENNE       TSTM      66  59  78 E14       30.05R
TORRINGTON     FAIR      93  49  22 NW12G22   29.85F HX  90
PINE BLUFFS    FAIR      82  50  32 N5        29.94F

$$



USA.gov is the U.S. government's official web portal to all federal, state and local government web resources and services.